Satellite-Ground Cal/Val Site Overpasses Predictions

Prediction of Satellite NPP Overpassing Cal/Val Site: Antarctic Dome C

Ground Cal/Val Site Location: Latitude: -75.10, Longitude: 123.35; Satellite-Ground Site NADIR distance within 100 km.

Table of predicted overpasses for the next 14.0 days since TLE Epoch: 12/25/2015
Interval Starting Time Ending Time Minimum Distance Time Minimum Distance (km)
1 12/26/2015 14:57:10 12/26/2015 14:57:39 12/26/2015 14:57:25 20.09
2 12/27/2015 14:38:27 12/27/2015 14:38:41 12/27/2015 14:38:34 87.22
3 12/28/2015 07:39:59 12/28/2015 07:40:26 12/28/2015 07:40:13 39.59
4 12/29/2015 07:21:12 12/29/2015 07:21:33 12/29/2015 07:21:23 70.55
5 12/31/2015 15:03:25 12/31/2015 15:03:49 12/31/2015 15:03:37 56.91
6 01/01/2016 14:44:34 01/01/2016 14:44:59 01/01/2016 14:44:47 52.35
7 01/02/2016 07:46:16 01/02/2016 07:46:35 01/02/2016 07:46:25 74.64
8 01/03/2016 07:27:21 01/03/2016 07:27:48 01/03/2016 07:27:35 33.32
9 01/05/2016 15:09:45 01/05/2016 15:09:54 01/05/2016 15:09:50 94.58
10 01/06/2016 14:50:45 01/06/2016 14:51:14 01/06/2016 14:50:59 16.82


NCC Satellite Cal/Val Overpasses Prediction Service
